Houlton, ME

11:03 PM EDT on August 24, 2016 (GMT -0400)
Houlton International

Weather History for KHUL - January, 2013

Change the Weather History Date:

Friday, January 18, 2013

  Actual Average Record
Temperature  
Mean Temperature -5 °F 11 °F  
Max Temperature 6 °F 22 °F 51 °F (2006)
Min Temperature -16 °F 0 °F -34 °F (1971)
Degree Days  
Heating Degree Days 70 54  
Month to date heating degree days 890 954  
Since 1 July heating degree days 4079 4474  
Cooling Degree Days 0 0  
Month to date cooling degree days 0 0  
Year to date cooling degree days 0 0  
Moisture  
Dew Point -17 °F    
Average Humidity 56    
Maximum Humidity 77    
Minimum Humidity 34    
Precipitation  
Precipitation 0.00 in 0.10 in 2.50 in (2006)
Month to date precipitation 0.18 1.66  
Year to date precipitation 0.18 1.66  
Sea Level Pressure  
Sea Level Pressure 30.22 in    
Wind  
Wind Speed 6 mph (West)    
Max Wind Speed 15 mph    
Max Gust Speed 22 mph    
Visibility 10 miles    
Events      
T = Trace of Precipitation, MM = Missing Value Source: NWS Daily Summary

Daily Weather History Graph

Daily Weather History Graph

Search for Another Location

Airport or City:

Trip Planner

Search our weather history database for the weather conditions in past years. The results will help you decide how hot, cold, wet, or windy it might be!

Date:

Astronomy

Jan. 18, 2013 Rise Set
Actual Time 7:07 AM EST 4:16 PM EST
Civil Twilight 6:34 AM EST 4:49 PM EST
Nautical Twilight 5:57 AM EST 5:26 PM EST
Astronomical Twilight 5:21 AM EST 6:02 PM EST
Moon 10:16 AM EST (1/18) No Moon Set
Length of Visible Light 10h 15m
Length of Day
9h 09m
Waxing Crescent, 47% of the Moon is Illuminated
Jan 18
Waxing Crescent
Jan 18
First Quarter
Jan 26
Full
Feb 3
Last Quarter
Feb 10
New

Hourly Weather History & Observations

Time (EST) Temp. Windchill Dew Point Humidity Pressure Visibility Wind Dir Wind Speed Gust Speed Precip Events Conditions
12:53 AM -4.0 °F -14.6 °F -18.9 °F 49% 30.15 in 10.0 mi North 4.6 mph - N/A   Clear
1:53 AM -5.1 °F -17.6 °F -17.0 °F 57% 30.18 in 10.0 mi North 5.8 mph - N/A   Clear
2:53 AM -6.0 °F -18.6 °F -17.0 °F 59% 30.17 in 10.0 mi North 5.8 mph - N/A   Clear
3:53 AM -7.1 °F -18.1 °F -18.0 °F 59% 30.17 in 10.0 mi NNE 4.6 mph - N/A   Clear
4:53 AM -9.0 °F -20.4 °F -18.0 °F 65% 30.17 in 10.0 mi NNE 4.6 mph - N/A   Clear
5:53 AM -9.9 °F -21.5 °F -18.9 °F 65% 30.18 in 10.0 mi NNE 4.6 mph - N/A   Clear
6:53 AM -13.0 °F - -18.9 °F 75% 30.22 in 10.0 mi Calm Calm - N/A   Clear
7:53 AM -16.1 °F - -23.1 °F 71% 30.23 in 10.0 mi Calm Calm - N/A   Clear
8:53 AM -9.9 °F - -17.0 °F 71% 30.24 in 10.0 mi Calm Calm - N/A   Clear
9:53 AM -6.0 °F - -16.1 °F 62% 30.23 in 10.0 mi Calm Calm - N/A   Clear
10:53 AM -2.2 °F -14.2 °F -18.4 °F 46% 30.15 in 10.0 mi West 5.8 mph - N/A   Clear
11:53 AM 1.9 °F -15.5 °F -20.0 °F 35% 30.19 in 10.0 mi West 12.7 mph 18.4 mph N/A   Clear
12:53 PM 3.9 °F -12.2 °F -18.9 °F 34% 30.19 in 10.0 mi WNW 11.5 mph 17.3 mph N/A   Clear
1:53 PM 5.0 °F -11.6 °F -18.0 °F 34% 30.20 in 10.0 mi WNW 12.7 mph 21.9 mph N/A   Clear
2:53 PM 5.0 °F -8.1 °F -17.0 °F 36% 30.21 in 10.0 mi West 8.1 mph - N/A   Clear
3:53 PM 5.0 °F -8.1 °F -16.1 °F 37% 30.22 in 10.0 mi West 8.1 mph - N/A   Clear
4:53 PM 1.9 °F -9.2 °F -16.1 °F 43% 30.24 in 10.0 mi SW 5.8 mph - N/A   Clear
5:53 PM -2.9 °F -13.3 °F -15.0 °F 56% 30.24 in 10.0 mi SSW 4.6 mph - N/A   Clear
6:53 PM -0.9 °F -11.0 °F -15.0 °F 52% 30.25 in 10.0 mi SSW 4.6 mph - N/A   Clear
7:53 PM -0.0 °F -11.6 °F -14.1 °F 52% 30.27 in 10.0 mi SSW 5.8 mph - N/A   Clear
8:53 PM -0.9 °F -14.1 °F -14.1 °F 54% 30.28 in 10.0 mi SSW 6.9 mph - N/A   Clear
9:53 PM -0.9 °F -12.7 °F -13.0 °F 57% 30.29 in 10.0 mi SSW 5.8 mph - N/A   Clear
10:53 PM -0.0 °F -14.2 °F -13.0 °F 54% 30.28 in 10.0 mi SSW 8.1 mph - N/A   Clear
11:53 PM -0.0 °F -14.2 °F -11.9 °F 57% 30.28 in 10.0 mi SSW 8.1 mph - N/A   Clear